GAOFEN-1 02

Last updated on Wed Sep 17 2025 00:02:31 GMT+0000 (Coordinated Universal Time)

1 43259U 18031A 25259.09631874 .00000272 00000+0 46426-4 0 9993 2 43259 97.9908 316.8015 0004580 137.3016 222.8550 14.76443705402257
UTC large
Height (km)
Speed (km/s)
/
Latitude / Longitude
Inclination (degrees)
Orbital Period (minutes)
Azimuth
Elevation
Range (km)
Doppler Factor

Next 0 passes for location: London (51.5072 / 0.1276)

Sorry there are no passes over London.